ANA636 RJOI-RJTT

Flight info

Callsign ANA636
Flight time 1h 2m
Altitude 31000
Route MALTA Y33 SHOOT Y71 XAC
Aircraft B738/M-SDE2E3FGHIRWXY/LB1

Departure

Time 2026-05-05 20:37
Airport Iwakuni Kintaikyo Airport (RJOI)

Arrival

Time 2026-05-05 21:40
Airport Tokyo Haneda International Airport (RJTT)
Time Latitude Longitude Altitude Speed Heading
2026-05-05 20:14 34.15892 132.23577 16 ft 0 kts 278°
2026-05-05 20:26 34.15890 132.23594 16 ft 3 kts 278°
2026-05-05 20:26 34.15888 132.23618 16 ft 3 kts 255°
2026-05-05 20:27 34.15899 132.23637 19 ft 3 kts 207°
2026-05-05 20:27 34.15910 132.23642 16 ft 0 kts 179°
2026-05-05 20:28 34.15907 132.23643 20 ft 2 kts 168°
2026-05-05 20:28 34.15878 132.23680 17 ft 9 kts 142°
2026-05-05 20:29 34.15799 132.23720 17 ft 16 kts 161°
2026-05-05 20:29 34.15740 132.23825 16 ft 16 kts 99°
2026-05-05 20:29 34.15721 132.23963 16 ft 18 kts 100°
2026-05-05 20:29 34.15651 132.24074 16 ft 18 kts 180°
2026-05-05 20:30 34.15526 132.24059 16 ft 18 kts 174°
2026-05-05 20:30 34.15466 132.24172 16 ft 17 kts 99°
2026-05-05 20:30 34.15447 132.24312 16 ft 17 kts 99°
2026-05-05 20:30 34.15429 132.24447 16 ft 16 kts 99°
2026-05-05 20:31 34.15412 132.24576 16 ft 15 kts 99°
2026-05-05 20:31 34.15379 132.24691 15 ft 15 kts 148°
2026-05-05 20:31 34.15280 132.24687 15 ft 14 kts 189°
2026-05-05 20:31 34.15185 132.24668 16 ft 14 kts 189°
2026-05-05 20:32 34.15083 132.24648 16 ft 17 kts 189°
2026-05-05 20:32 34.14944 132.24621 16 ft 23 kts 189°
2026-05-05 20:32 34.14778 132.24589 16 ft 24 kts 189°
2026-05-05 20:32 34.14618 132.24559 16 ft 23 kts 189°
2026-05-05 20:33 34.14464 132.24528 16 ft 22 kts 190°
2026-05-05 20:33 34.14315 132.24498 15 ft 21 kts 190°
2026-05-05 20:33 34.14169 132.24471 16 ft 21 kts 189°
2026-05-05 20:33 34.14028 132.24444 16 ft 20 kts 189°
2026-05-05 20:34 34.13891 132.24418 16 ft 20 kts 188°
2026-05-05 20:34 34.13758 132.24393 16 ft 19 kts 189°
2026-05-05 20:34 34.13630 132.24368 16 ft 18 kts 189°
2026-05-05 20:34 34.13506 132.24343 16 ft 18 kts 189°
2026-05-05 20:35 34.13386 132.24320 16 ft 17 kts 189°
2026-05-05 20:35 34.13271 132.24299 16 ft 16 kts 191°
2026-05-05 20:35 34.13192 132.24335 16 ft 0 kts 110°
2026-05-05 20:36 34.13188 132.24354 18 ft 7 kts 100°
2026-05-05 20:36 34.13195 132.24426 17 ft 10 kts 61°
2026-05-05 20:36 34.13253 132.24463 16 ft 10 kts
2026-05-05 20:36 34.13317 132.24476 16 ft 9 kts
2026-05-05 20:37 34.13423 132.24496 18 ft 40 kts
2026-05-05 20:37 34.13990 132.24607 14 ft 123 kts
2026-05-05 20:37 34.15060 132.24813 101 ft 183 kts
2026-05-05 20:37 34.16399 132.25149 753 ft 204 kts 19°
2026-05-05 20:38 34.17681 132.26006 1482 ft 220 kts 39°
2026-05-05 20:38 34.18813 132.27387 2044 ft 244 kts 52°
2026-05-05 20:38 34.19774 132.29179 2427 ft 265 kts 67°
2026-05-05 20:38 34.20073 132.31370 2946 ft 265 kts 105°
2026-05-05 20:39 34.19242 132.33261 3877 ft 255 kts 140°
2026-05-05 20:39 34.17797 132.34473 4716 ft 255 kts 148°
2026-05-05 20:39 34.16350 132.35760 5439 ft 261 kts 145°
2026-05-05 20:39 34.14905 132.37123 5993 ft 265 kts 144°
2026-05-05 20:40 34.13465 132.38517 6192 ft 267 kts 143°
2026-05-05 20:40 34.12014 132.39946 6166 ft 269 kts 143°
2026-05-05 20:40 34.10584 132.41371 6157 ft 266 kts 142°
2026-05-05 20:40 34.09170 132.42789 6178 ft 263 kts 142°
2026-05-05 20:41 34.07770 132.44199 6174 ft 261 kts 142°
2026-05-05 20:41 34.06380 132.45602 6174 ft 261 kts 142°
2026-05-05 20:41 34.04987 132.47010 6182 ft 261 kts 142°
2026-05-05 20:41 34.03592 132.48421 6184 ft 262 kts 142°
2026-05-05 20:42 34.02194 132.49836 6186 ft 264 kts 142°
2026-05-05 20:42 34.00785 132.51262 6176 ft 265 kts 142°
2026-05-05 20:42 33.99369 132.52695 6176 ft 266 kts 142°
2026-05-05 20:42 33.97953 132.54129 6181 ft 267 kts 142°
2026-05-05 20:43 33.96545 132.55553 6168 ft 268 kts 142°
2026-05-05 20:43 33.95116 132.56998 6175 ft 268 kts 142°
2026-05-05 20:43 33.93692 132.58439 6176 ft 267 kts 142°
2026-05-05 20:43 33.92271 132.59875 6164 ft 267 kts 142°
2026-05-05 20:44 33.90850 132.61311 6161 ft 266 kts 142°
2026-05-05 20:44 33.89430 132.62746 6154 ft 266 kts 142°
2026-05-05 20:44 33.88013 132.64176 6159 ft 266 kts 142°
2026-05-05 20:44 33.86596 132.65604 6167 ft 266 kts 142°
2026-05-05 20:45 33.83993 132.68746 6120 ft 271 kts 115°
2026-05-05 20:45 33.83648 132.70963 6310 ft 274 kts 89°
2026-05-05 20:45 33.84041 132.73229 6929 ft 281 kts 74°
2026-05-05 20:46 33.84655 132.75481 7613 ft 286 kts 72°
2026-05-05 20:46 33.85310 132.77765 8335 ft 290 kts 72°
2026-05-05 20:46 33.85972 132.80069 9084 ft 293 kts 72°
2026-05-05 20:46 33.86639 132.82408 9834 ft 297 kts 72°
2026-05-05 20:47 33.87309 132.84781 10487 ft 303 kts 72°
2026-05-05 20:47 33.88004 132.87263 10675 ft 326 kts 72°
2026-05-05 20:47 33.88749 132.89943 10869 ft 348 kts 72°
2026-05-05 20:47 33.89536 132.92783 11134 ft 365 kts 72°
2026-05-05 20:48 33.90344 132.95706 11724 ft 370 kts 72°
2026-05-05 20:48 33.91151 132.98626 12365 ft 374 kts 73°
2026-05-05 20:48 33.91976 133.01616 12943 ft 379 kts 73°
2026-05-05 20:48 33.92810 133.04649 13558 ft 384 kts 73°
2026-05-05 20:49 33.93651 133.07711 14188 ft 387 kts 73°
2026-05-05 20:49 33.94501 133.10807 14729 ft 392 kts 73°
2026-05-05 20:49 33.95361 133.13946 15185 ft 398 kts 73°
2026-05-05 20:49 33.96234 133.17134 15137 ft 401 kts 73°
2026-05-05 20:50 33.97101 133.20300 15204 ft 396 kts 73°
2026-05-05 20:50 33.97684 133.22434 15194 ft 400 kts 73°
2026-05-05 20:50 33.98836 133.26680 15836 ft 404 kts 73°
2026-05-05 20:50 33.99709 133.29904 16489 ft 405 kts 73°
2026-05-05 20:51 34.00586 133.33147 16964 ft 411 kts 73°
2026-05-05 20:51 34.01479 133.36455 17419 ft 417 kts 73°
2026-05-05 20:51 34.02382 133.39795 17940 ft 421 kts 73°
2026-05-05 20:51 34.03293 133.43172 18468 ft 425 kts 73°
2026-05-05 20:52 34.04212 133.46575 18876 ft 430 kts 72°
2026-05-05 20:52 34.05210 133.50006 19262 ft 436 kts 71°
2026-05-05 20:52 34.06270 133.53449 19705 ft 440 kts 70°
2026-05-05 20:52 34.07352 133.56912 20153 ft 444 kts 70°
2026-05-05 20:53 34.08442 133.60413 20625 ft 446 kts 70°
2026-05-05 20:53 34.09525 133.63926 21079 ft 449 kts 71°
2026-05-05 20:53 34.10618 133.67499 21299 ft 459 kts 71°
2026-05-05 20:53 34.11711 133.71100 21584 ft 465 kts 71°
2026-05-05 20:54 34.12840 133.74825 22079 ft 467 kts 71°
2026-05-05 20:54 34.13940 133.78462 22522 ft 470 kts 71°
2026-05-05 20:54 34.15067 133.82188 22838 ft 476 kts 71°
2026-05-05 20:54 34.16206 133.85959 23061 ft 483 kts 71°
2026-05-05 20:55 34.17368 133.89798 23323 ft 489 kts 71°
2026-05-05 20:55 34.18552 133.93662 23750 ft 491 kts 71°
2026-05-05 20:55 34.19745 133.97543 24073 ft 494 kts 71°
2026-05-05 20:55 34.20940 134.01449 24298 ft 500 kts 71°
2026-05-05 20:56 34.21998 134.05474 24463 ft 505 kts 77°
2026-05-05 20:56 34.22867 134.09607 24757 ft 508 kts 79°
2026-05-05 20:56 34.23407 134.12407 25065 ft 507 kts 79°
2026-05-05 20:56 34.24187 134.16574 25345 ft 511 kts 79°
2026-05-05 20:57 34.25241 134.22167 25567 ft 519 kts 79°
2026-05-05 20:57 34.25785 134.24992 25711 ft 522 kts 79°
2026-05-05 20:57 34.26625 134.29272 25959 ft 526 kts 79°
2026-05-05 20:57 34.27483 134.33587 26208 ft 529 kts 78°
2026-05-05 20:58 34.28352 134.37930 26465 ft 533 kts 78°
2026-05-05 20:58 34.29225 134.42286 26734 ft 535 kts 78°
2026-05-05 20:58 34.30102 134.46677 26923 ft 540 kts 78°
2026-05-05 20:58 34.30984 134.51113 27078 ft 545 kts 79°
2026-05-05 20:59 34.31870 134.55583 27318 ft 548 kts 79°
2026-05-05 20:59 34.32759 134.60077 27580 ft 550 kts 79°
2026-05-05 20:59 34.33650 134.64594 27793 ft 554 kts 79°
2026-05-05 20:59 34.34544 134.69139 27960 ft 558 kts 79°
2026-05-05 21:00 34.35445 134.73726 28134 ft 562 kts 79°
2026-05-05 21:00 34.36348 134.78334 28360 ft 565 kts 79°
2026-05-05 21:00 34.37254 134.82963 28611 ft 567 kts 79°
2026-05-05 21:00 34.38163 134.87618 28867 ft 568 kts 79°
2026-05-05 21:01 34.39019 134.92293 29180 ft 569 kts 81°
2026-05-05 21:01 34.39794 134.96988 29422 ft 571 kts 82°
2026-05-05 21:01 34.40536 135.01729 29658 ft 573 kts 82°
2026-05-05 21:01 34.41270 135.06467 29906 ft 575 kts 82°
2026-05-05 21:02 34.42017 135.11240 30142 ft 577 kts 82°
2026-05-05 21:02 34.42775 135.16011 30380 ft 578 kts 82°
2026-05-05 21:02 34.43540 135.20766 30810 ft 573 kts 82°
2026-05-05 21:02 34.44304 135.25489 31276 ft 568 kts 82°
2026-05-05 21:03 34.45825 135.34927 31157 ft 571 kts 82°
2026-05-05 21:03 34.47327 135.44314 31180 ft 567 kts 82°
2026-05-05 21:04 34.48813 135.53677 31206 ft 566 kts 82°
2026-05-05 21:04 34.50296 135.63058 31214 ft 566 kts 82°
2026-05-05 21:05 34.51766 135.72421 31206 ft 566 kts 82°
2026-05-05 21:05 34.53216 135.81742 31210 ft 566 kts 82°
2026-05-05 21:06 34.54649 135.91009 31206 ft 566 kts 82°
2026-05-05 21:06 34.56124 136.00407 31207 ft 567 kts 82°
2026-05-05 21:07 34.57538 136.09812 31218 ft 567 kts 82°
2026-05-05 21:07 34.58969 136.19210 31221 ft 566 kts 82°
2026-05-05 21:08 34.60395 136.28541 31206 ft 566 kts 82°
2026-05-05 21:08 34.61834 136.37926 31229 ft 566 kts 82°
2026-05-05 21:09 34.63261 136.47310 31220 ft 565 kts 82°
2026-05-05 21:09 34.64678 136.56695 31244 ft 565 kts 82°
2026-05-05 21:10 34.66088 136.66086 31240 ft 565 kts 82°
2026-05-05 21:10 34.67497 136.75487 31240 ft 565 kts 82°
2026-05-05 21:11 34.68896 136.84887 31250 ft 566 kts 82°
2026-05-05 21:11 34.70276 136.94288 31248 ft 566 kts 83°
2026-05-05 21:12 34.70812 137.03769 31278 ft 559 kts 94°
2026-05-05 21:12 34.70810 137.13208 31252 ft 559 kts 95°
2026-05-05 21:13 34.70823 137.22678 31245 ft 560 kts 94°
2026-05-05 21:13 34.70904 137.32143 31253 ft 561 kts 93°
2026-05-05 21:14 34.71003 137.41634 31243 ft 561 kts 93°
2026-05-05 21:14 34.71092 137.51122 31257 ft 561 kts 93°
2026-05-05 21:15 34.71166 137.60544 31247 ft 562 kts 93°
2026-05-05 21:15 34.71232 137.70030 31265 ft 561 kts 93°
2026-05-05 21:16 34.71291 137.79589 31252 ft 561 kts 94°
2026-05-05 21:16 34.71342 137.89001 31274 ft 560 kts 93°
2026-05-05 21:17 34.71385 137.98456 31263 ft 559 kts 93°
2026-05-05 21:17 34.71427 138.07904 31270 ft 558 kts 93°
2026-05-05 21:18 34.71453 138.12628 31048 ft 560 kts 93°
2026-05-05 21:18 34.71478 138.17391 30154 ft 567 kts 93°
2026-05-05 21:18 34.71501 138.22160 29674 ft 561 kts 93°
2026-05-05 21:18 34.71518 138.26902 28756 ft 563 kts 93°
2026-05-05 21:19 34.71532 138.31643 28364 ft 554 kts 93°
2026-05-05 21:19 34.71548 138.36298 27731 ft 551 kts 94°
2026-05-05 21:19 34.71561 138.40933 27320 ft 542 kts 93°
2026-05-05 21:19 34.71574 138.45480 26765 ft 537 kts 93°
2026-05-05 21:20 34.71583 138.49995 26295 ft 530 kts 93°
2026-05-05 21:20 34.71591 138.54386 25813 ft 523 kts 93°
2026-05-05 21:20 34.71597 138.58834 25297 ft 518 kts 93°
2026-05-05 21:20 34.71601 138.63190 24809 ft 511 kts 93°
2026-05-05 21:21 34.71603 138.67478 24345 ft 505 kts 94°
2026-05-05 21:21 34.71604 138.71664 23867 ft 499 kts 94°
2026-05-05 21:21 34.71604 138.75908 23304 ft 492 kts 94°
2026-05-05 21:21 34.71603 138.80038 22809 ft 485 kts 94°
2026-05-05 21:22 34.71594 138.84033 22499 ft 474 kts 94°
2026-05-05 21:22 34.71575 138.87987 22222 ft 462 kts 94°
2026-05-05 21:22 34.71552 138.91850 21977 ft 452 kts 94°
2026-05-05 21:22 34.71529 138.95639 21591 ft 447 kts 94°
2026-05-05 21:23 34.71507 138.99399 21102 ft 444 kts 94°
2026-05-05 21:23 34.71484 139.03138 20692 ft 439 kts 94°
2026-05-05 21:23 34.71462 139.06822 20253 ft 434 kts 94°
2026-05-05 21:23 34.71439 139.10476 19798 ft 432 kts 94°
2026-05-05 21:24 34.71415 139.14116 19330 ft 429 kts 94°
2026-05-05 21:24 34.71390 139.17739 18830 ft 427 kts 94°
2026-05-05 21:24 34.71364 139.21341 18357 ft 424 kts 94°
2026-05-05 21:24 34.71337 139.24917 17810 ft 422 kts 94°
2026-05-05 21:25 34.71310 139.28454 17343 ft 417 kts 94°
2026-05-05 21:25 34.71282 139.31956 16879 ft 412 kts 94°
2026-05-05 21:25 34.71254 139.35425 16405 ft 408 kts 94°
2026-05-05 21:25 34.71229 139.38855 15966 ft 404 kts 92°
2026-05-05 21:26 34.71675 139.42227 15426 ft 408 kts 71°
2026-05-05 21:26 34.72941 139.45249 15295 ft 396 kts 61°
2026-05-05 21:26 34.74357 139.48117 14746 ft 396 kts 60°
2026-05-05 21:26 34.75786 139.50949 14355 ft 390 kts 60°
2026-05-05 21:27 34.77199 139.53755 13875 ft 387 kts 60°
2026-05-05 21:27 34.78588 139.56545 13403 ft 383 kts 61°
2026-05-05 21:27 34.79951 139.59307 12946 ft 379 kts 61°
2026-05-05 21:27 34.81295 139.62053 12504 ft 375 kts 61°
2026-05-05 21:28 34.82621 139.64770 12079 ft 371 kts 61°
2026-05-05 21:28 34.83933 139.67466 11638 ft 368 kts 61°
2026-05-05 21:28 34.85229 139.70134 11222 ft 365 kts 61°
2026-05-05 21:28 34.86502 139.72752 11131 ft 352 kts 62°
2026-05-05 21:29 34.87731 139.75282 10924 ft 343 kts 62°
2026-05-05 21:29 34.88915 139.77722 10794 ft 334 kts 62°
2026-05-05 21:29 34.90077 139.80117 10655 ft 325 kts 62°
2026-05-05 21:29 34.91209 139.82452 10516 ft 314 kts 62°
2026-05-05 21:30 34.92296 139.84696 10377 ft 300 kts 62°
2026-05-05 21:30 34.93389 139.86796 10238 ft 292 kts 52°
2026-05-05 21:30 34.95013 139.88265 9942 ft 294 kts 21°
2026-05-05 21:30 34.96994 139.88701 9738 ft 289 kts 358°
2026-05-05 21:31 34.98970 139.88298 9476 ft 286 kts 345°
2026-05-05 21:31 35.00892 139.87684 9128 ft 288 kts 343°
2026-05-05 21:31 35.02826 139.87042 8862 ft 286 kts 343°
2026-05-05 21:31 35.04749 139.86407 8560 ft 286 kts 343°
2026-05-05 21:32 35.06673 139.85780 8286 ft 286 kts 344°
2026-05-05 21:32 35.08595 139.85160 8010 ft 285 kts 344°
2026-05-05 21:32 35.10515 139.84547 7733 ft 285 kts 344°
2026-05-05 21:32 35.12430 139.83937 7451 ft 285 kts 344°
2026-05-05 21:33 35.14350 139.83327 7172 ft 284 kts 344°
2026-05-05 21:33 35.16269 139.82718 6908 ft 284 kts 344°
2026-05-05 21:33 35.18180 139.82112 6623 ft 285 kts 344°
2026-05-05 21:33 35.20075 139.81512 6328 ft 284 kts 343°
2026-05-05 21:34 35.21991 139.80903 5986 ft 285 kts 343°
2026-05-05 21:34 35.23941 139.80284 5620 ft 287 kts 343°
2026-05-05 21:34 35.25853 139.79677 5287 ft 288 kts 343°
2026-05-05 21:34 35.27791 139.79060 4930 ft 288 kts 343°
2026-05-05 21:35 35.29733 139.78443 4569 ft 289 kts 343°
2026-05-05 21:35 35.31742 139.78309 4132 ft 293 kts 13°
2026-05-05 21:35 35.33555 139.79244 4067 ft 275 kts 30°
2026-05-05 21:35 35.35128 139.80459 3990 ft 257 kts 33°
2026-05-05 21:36 35.36565 139.81620 3856 ft 239 kts 33°
2026-05-05 21:36 35.37919 139.82697 3765 ft 224 kts 33°
2026-05-05 21:36 35.39177 139.83686 3623 ft 206 kts 32°
2026-05-05 21:36 35.40354 139.84606 3329 ft 199 kts 33°
2026-05-05 21:37 35.41605 139.85220 3271 ft 194 kts 358°
2026-05-05 21:37 35.42927 139.85196 3205 ft 187 kts 356°
2026-05-05 21:37 35.44201 139.85115 2850 ft 181 kts 342°
2026-05-05 21:37 35.45319 139.84476 2407 ft 176 kts 325°
2026-05-05 21:38 35.46388 139.83745 1981 ft 175 kts 325°
2026-05-05 21:38 35.47393 139.83040 1791 ft 157 kts 324°
2026-05-05 21:38 35.48292 139.82401 1749 ft 145 kts 324°
2026-05-05 21:38 35.49182 139.81766 1564 ft 148 kts 324°
2026-05-05 21:39 35.50070 139.81129 1263 ft 147 kts 325°
2026-05-05 21:39 35.50950 139.80499 952 ft 146 kts 326°
2026-05-05 21:39 35.51829 139.79866 644 ft 146 kts 329°
2026-05-05 21:39 35.52691 139.79250 321 ft 141 kts 329°
2026-05-05 21:40 35.53522 139.78659 66 ft 136 kts 329°
2026-05-05 21:40 35.54277 139.78122 27 ft 113 kts 331°
2026-05-05 21:40 35.54606 139.77894 27 ft 2 kts 332°
2026-05-05 21:40 35.54668 139.77902 26 ft 15 kts
2026-05-05 21:41 35.54812 139.77902 22 ft 23 kts 358°
2026-05-05 21:41 35.54976 139.77887 23 ft 23 kts 338°
2026-05-05 21:41 35.55113 139.77789 24 ft 22 kts 329°
2026-05-05 21:41 35.55236 139.77774 23 ft 19 kts 62°
2026-05-05 21:42 35.55159 139.77886 25 ft 19 kts 149°
2026-05-05 21:42 35.55050 139.77966 25 ft 18 kts 149°
2026-05-05 21:42 35.54944 139.78042 25 ft 17 kts 156°
2026-05-05 21:42 35.54840 139.78112 26 ft 17 kts 149°
2026-05-05 21:43 35.54740 139.78183 25 ft 17 kts 150°
2026-05-05 21:43 35.54631 139.78261 24 ft 20 kts 149°
2026-05-05 21:43 35.54502 139.78351 24 ft 22 kts 150°
2026-05-05 21:43 35.54372 139.78444 25 ft 21 kts 149°
2026-05-05 21:44 35.54306 139.78578 23 ft 21 kts 66°
2026-05-05 21:44 35.54377 139.78730 25 ft 20 kts 60°
2026-05-05 21:44 35.54449 139.78875 25 ft 20 kts 58°
2026-05-05 21:44 35.54494 139.78977 26 ft 20 kts 62°
2026-05-05 21:45 35.54564 139.79121 28 ft 19 kts 60°
2026-05-05 21:45 35.54635 139.79269 26 ft 21 kts 59°
2026-05-05 21:45 35.54707 139.79419 24 ft 20 kts 57°
2026-05-05 21:45 35.54790 139.79533 23 ft 17 kts 357°
2026-05-05 21:46 35.54896 139.79473 24 ft 17 kts 330°
2026-05-05 21:46 35.54994 139.79402 24 ft 16 kts 328°
2026-05-05 21:46 35.55069 139.79313 23 ft 15 kts 277°
2026-05-05 21:46 35.55028 139.79200 25 ft 10 kts 238°
2026-05-05 21:47 35.54980 139.79195 24 ft 7 kts 160°
2026-05-05 21:47 35.54940 139.79216 25 ft 2 kts 155°
2026-05-05 21:47 35.54938 139.79218 24 ft 0 kts 155°